Weather observations for the past three days for
Goodyear Municipal
Metric (Imperial)
Date Time (mst) Wind (kph) Vis. (km) Weather Sky Cond. Temperature (ºC) Relative Humidity Wind Chill (°C) Heat Index (°C) Pressure Precipitation (cm)
Air Dwpt 6 hour altimeter (cm) sea level (mb) 1 hr 3 hr 6 hr
Max. Min.
04 13:47 SW 19 G 30 16.09 Overcast SCT060 BKN150 OVC 23 9 41% 75.95 0.0
04 12:47 W 15 16.09 Overcast SCT060 BKN150 OVC 23 8 38% 75.97 0.0
04 11:47 W 19 16.09 Overcast SCT060 BKN150 OVC 22 8 41% 76 0.0
04 10:47 SW 20 16.09 Overcast SCT060 BKN150 OVC 21 11 53% 76 0.0
04 09:47 SW 24 16.09 Overcast SCT060 BKN150 OVC 22 10 47% 75.95 0.0
04 08:47 SW 22 16.09 Overcast SCT060 BKN150 OVC 21 12 57% 75.95 0.0
04 07:47 SW 28 G 37 16.09 Mostly Cloudy SCT060 BKN200 21 11 53% 75.92 0.0
04 06:47 SW 17 16.09 Mostly Cloudy SCT060 BKN200 22 8 41% 75.84 0.0
04 05:47 S 7 16.09 Mostly Cloudy FEW060 BKN200 22 9 44% 75.84 0.0
03 20:47 SW 37 G 46 16.09 Mostly Cloudy and Breezy BKN200 28 3 20% 27 75.62 0.0
03 19:47 SW 37 G 46 16.09 Mostly Cloudy and Breezy BKN200 29 1 16% 27 75.54 0.0
03 18:47 SW 28 G 46 16.09 Mostly Cloudy BKN200 32 -1 12% 30 75.46 0.0
03 17:47 SW 35 G 48 16.09 A Few Clouds and Breezy FEW130 FEW200 33 2 14% 31 75.46 0.0
03 16:47 SW 37 G 46 16.09 A Few Clouds and Breezy FEW130 FEW200 35 1 11% 32 75.46 0.0
03 15:47 S 22 G 39 16.09 A Few Clouds FEW130 FEW200 36 0 10% 33 75.46 0.0
03 14:47 SW 28 G 39 16.09 Partly Cloudy FEW130 FEW180 SCT250 36 1 11% 33 75.54 0.0
03 13:47 W 17 G 37 16.09 Partly Cloudy FEW130 FEW180 SCT250 34 2 13% 32 75.62 0.0
03 12:47 SE 20 16.09 Mostly Cloudy BKN200 34 3 14% 32 75.95 0.0
03 11:47 E 17 16.09 Mostly Cloudy BKN200 33 6 18% 31 75.77 0.0
03 10:47 E 22 16.09 Mostly Cloudy BKN200 29 7 25% 28 75.84 0.0
03 09:47 SE 19 16.09 Mostly Cloudy FEW110 BKN180 29 8 27% 28 75.84 0.0
03 08:47 E 17 16.09 Mostly Cloudy FEW110 BKN180 27 8 30% 26 75.84 0.0
03 07:47 E 20 16.09 Mostly Cloudy BKN100 26 8 32% 26 75.84 0.0
03 06:47 E 13 16.09 Mostly Cloudy BKN100 24 7 34% 25 75.82 0.0
03 05:47 E 9 16.09 Mostly Cloudy BKN070 24 4 27% 25 75.64 0.0
02 20:47 Vrbl 6 16.09 Mostly Cloudy BKN200 31 1 15% 29 75.67 0.0
02 19:47 Vrbl 6 16.09 Mostly Cloudy SCT160 BKN250 31 1 15% 29 75.67 0.0
02 18:47 Vrbl 7 16.09 Mostly Cloudy SCT160 BKN250 33 1 13% 31 75.67 0.0
02 17:47 E 13 16.09 Mostly Cloudy SCT160 BKN250 33 1 13% 31 75.67 0.0
02 16:47 E 13 16.09 Mostly Cloudy SCT160 BKN250 34 1 12% 31 75.67 0.0
02 15:47 E 13 16.09 Mostly Cloudy SCT160 BKN250 34 1 12% 31 75.72 0.0
02 14:47 NE 13 16.09 Partly Cloudy SCT160 34 1 12% 31 75.79 0.0
02 13:47 NE 7 16.09 Partly Cloudy SCT160 34 1 12% 31 75.84 0.0
02 12:47 E 20 G 31 16.09 Partly Cloudy SCT160 33 5 17% 31 75.92 0.0
02 11:47 E 24 16.09 Partly Cloudy SCT160 32 6 20% 30 75.97 0.0
02 10:47 E 20 16.09 Partly Cloudy SCT160 31 8 24% 29 76.05 0.0
02 09:47 E 19 G 35 16.09 Partly Cloudy SCT160 29 8 27% 28 76.05 0.0
02 08:47 E 15 16.09 Partly Cloudy SCT160 28 4 21% 27 76.05 0.0
02 07:47 NE 9 16.09 Partly Cloudy SCT160 25 2 22% 25 76.02 0.0
02 06:47 E 9 16.09 Partly Cloudy SCT160 22 2 27% 75.97 0.0
02 05:47 Vrbl 9 16.09 Partly Cloudy SCT160 22 1 25% 75.9 0.0
01 20:47 SW 7 16.09 Partly Cloudy SCT160 28 0 16% 27 75.67 0.0
01 19:47 SW 13 16.09 A Few Clouds FEW160 29 1 16% 27 75.62 0.0
01 18:47 SW 17 16.09 A Few Clouds FEW160 31 1 15% 29 75.59 0.0
01 17:47 SW 19 16.09 A Few Clouds FEW160 32 3 16% 30 75.62 0.0
01 16:47 S 13 16.09 A Few Clouds FEW160 32 3 16% 30 75.62 0.0
01 15:47 SW 17 16.09 A Few Clouds FEW160 31 4 18% 29 75.64 0.0
01 14:47 SW 11 16.09 A Few Clouds FEW160 31 4 18% 29 75.72 0.0
Date Time (mst) Wind (kph) Vis. (km) Weather Sky Cond. Air Dwpt Max. Min. Relative Humidity Wind Chill (°C) Heat Index (°C) altimeter (cm) sea level (mb) 1 hr 3 hr 6 hr
6 hour
Temperature (ºC) Pressure Precipitation (cm)